This demonstration page uses our WeatherBlox Daily Observations layout. Learn more.

Left ArrowRight Arrow

39.01783, -85.05884

Hourly Observations for March 5, 2015

Temp ( °F °C ) Dew Point ( °F °C ) Humidity (%) Winds ( mph kmh ) Pressure ( in mb ) Visibility ( mi km ) Precip ( " mm )
12:08 am 00:08 Cloudy with Light Snow 21 -6 12 -11 68 68 N 12 19 30.30 1026 3 5 0.00 0.03
12:52 am 00:52 Cloudy 22 -5.6 12 -11.1 66 66 N 12 19 30.23 1024 10 16 0.00 0.03
1:52 am 01:52 Cloudy 22 -5.6 12 -11.1 66 66 N 16 26 30.24 1024 10 16 0.00 0.00
2:52 am 02:52 Cloudy 20 -6.7 8 -13.3 60 60 N 20 31 30.26 1025 10 16 0.00 0.00
3:45 am 03:45 Windy with Snow Likely 19 -7 9 -13 63 63 NNE 20 31 30.33 1027 2 3 0.00 0.03
3:52 am 03:52 Windy with Snow Likely 19 -7.2 10 -12.2 68 68 NNE 21 33 30.27 1025 2 3 0.00 0.03
4:00 am 04:00 Mostly Cloudy with Light Snow 18 -8 10 -12 73 73 N 22 35 30.33 1027 1 2 0.00 0.00
4:41 am 04:41 Cloudy with Light Snow 18 -8 10 -12 73 73 NNE 15 24 30.33 1027 2 3 0.00 0.03
4:52 am 04:52 Cloudy with Light Snow 19 -7.2 10 -12.2 68 68 NNE 12 19 30.27 1025 2 3 0.00 0.03
5:10 am 05:10 Cloudy with Light Snow 19 -7 10 -12 68 68 NE 7 11 30.36 1028 7 11 0.00 0.03
5:52 am 05:52 Cloudy with Light Snow 19 -7.2 8 -13.3 62 62 N 12 19 30.29 1026 7 11 0.00 0.03
6:03 am 06:03 Cloudy with Light Snow 19 -7 10 -12 68 68 NNE 13 20 30.36 1028 3 5 0.00 0.00
6:08 am 06:08 Cloudy with Light Snow 18 -8 10 -12 73 73 NNE 15 24 30.33 1027 2 3 0.00 0.00
6:52 am 06:52 Cloudy with Light Snow 18 -7.8 11 -11.7 74 74 NNE 10 17 30.31 1026 3 5 0.01 0.25
7:52 am 07:52 Cloudy 19 -7.2 9 -12.8 65 65 N 9 15 30.31 1027 9 14 0.00 0.03
8:52 am 08:52 Cloudy 19 -7.2 9 -12.8 65 65 N 9 15 30.38 1029 10 16 0.00 0.00
9:14 am 09:14 Cloudy 19 -7 9 -13 63 63 N 12 19 30.42 1030 8 13 0.00 0.00
9:52 am 09:52 Cloudy 20 -6.7 9 -12.8 62 62 N 12 19 30.34 1028 10 16 0.00 0.00
10:52 am 10:52 Cloudy 20 -6.7 8 -13.3 60 60 NNE 10 17 30.36 1028 10 16 0.00 0.00
11:52 am 11:52 Cloudy 21 -6.1 9 -12.8 59 59 VRB 7 11 30.39 1029 10 16 0.00 0.00
12:52 pm 12:52 Cloudy 21 -6.1 7 -13.9 54 54 NNW 12 19 30.40 1029 10 16 0.00 0.00
1:52 pm 13:52 Mostly Cloudy 23 -5 7 -13.9 50 50 N 9 15 30.40 1029 10 16 0.00 0.00
2:52 pm 14:52 Mostly Cloudy 24 -4.4 7 -13.9 48 48 NNW 14 22 30.40 1030 10 16 0.00 0.00
3:52 pm 15:52 Partly Cloudy 24 -4.4 8 -13.3 50 50 NNW 15 24 30.42 1030 10 16 0.00 0.00
4:52 pm 16:52 Mostly Sunny 24 -4.4 7 -13.9 48 48 N 13 20 30.46 1031 10 16 0.00 0.00
5:52 pm 17:52 Mostly Sunny 22 -5.6 7 -13.9 52 52 N 8 13 30.48 1032 10 16 0.00 0.00
6:52 pm 18:52 Mostly Clear 19 -7.2 5 -15 54 54 N 8 13 30.51 1033 10 16 0.00 0.00
7:52 pm 19:52 Clear 18 -7.8 4 -15.6 54 54 N 8 13 30.53 1034 10 16 0.00 0.00
8:52 pm 20:52 Clear 17 -8.3 4 -15.6 56 56 N 6 9 30.55 1035 10 16 0.00 0.00
9:52 pm 21:52 Clear 14 -10 3 -16.1 61 61 N 6 9 30.56 1035 10 16 0.00 0.00
10:52 pm 22:52 Clear 13 -10.6 3 -16.1 64 64 N 3 6 30.58 1035 10 16 0.00 0.00
11:52 pm 23:52 Clear 11 -11.7 3 -16.1 70 70 Calm 30.57 1035 10 16 0.00 0.00

Powered by AerisWeather